Terminal Aerodrome Forecast
Issued by NWS

Home | Current Version | Previous Version | Text Only | Print | Product List | Glossary On
Versions: 1 2 3 4 5 6 7 8 9 10 11 12 13 14 15 16 17 18 19 20 21 22 23 24 25 26 27 28 29 30 31
000
FTAK31 PANC 191720
TAFACD
TAF
PACD 191720Z 1918/2018 09008KT P6SM VCSH SCT015 OVC045
     FM200200 06007KT P6SM SCT025 BKN035
     FM200700 02007KT P6SM VCSH BKN015=

USA.gov is the U.S. government's official web portal to all federal, state and local government web resources and services.